Погода Тас-Тумус

Погода Тас-Тумус : погода сейчас, прогноз погоды и архив. Всё, что Вы хотите узнать о погоде Тас-Тумус!

Поиск расширенной информации на нашем сайте:

Другие новости

Новости СМИ2

Главная страница сайта

Новости сайта

03.07.2017

Напоминаем, что на нашем специализированном сайте Метеоцентр.Азия вы можете получить высокодетализированные автоматические прогнозы погоды по пунктам России, СНГ и мира в авиационном формате (включающие направление и скорость ветра, видимость, явления погоды, количество и форму облачности, нижнюю и верхнюю границу облачности).


Погода Тас-Тумус - сегодня

Время (UTC), дата Ветер
(°,м/с) 
Видим.   Явления Облачность Т
(°С)
Тd
(°С)
f(%) Тe
(°С)
Pmin
(гПа)
dP
(гПа)
Po
(мм)
O2
(г/м3)
Тmin Tmax R s Состояние
почвы
06 18.09.17 тихо ()   20000 м    9/6 600 м средняя 
[Sc|Ac trans]
+6.1 +4 86 +6  1012.8  1.2  752  296           
09 18.09.17 тихо ()   20000 м    9/6 600 м кучево-дожд., средняя 
[Cb calv|Ac trans]
+6.8 +5 88 +7  1015  753  295           
15 18.09.17 тихо ()   20000 м    9/6 600 м кучево-дожд., средняя 
[Cb calv|Ac trans]
+3.2 +3.2 100 +3  1016.2  0.2  754  300           
21 18.09.17 тихо ()   20000 м    8/0 средняя 
[Ac trans]
+2.8 +2.8 100 +3  1015.5  -0.7  754  300           
00 19.09.17 тихо ()   20000 м    10/0 средняя 
[Ac As]
+4.2 +4.2 100 +4  1015.2  -0.3  753  298  +2.1        влажная 
03 19.09.17 тихо ()   20000 м    10/0 средняя 
[Ac As]
+5.4 +4.9 97 +5  1014.1  -1  753  297           
06 19.09.17 тихо ()   10 км  слаб. дождь  10/0 средняя 
[As op]
+6.2 +5.3 94 +6  1012.8  -1.2  752  295           
09 19.09.17 тихо ()   10 км  слаб. дождь  10/0 средняя 
[As op]
+5.2 +5.2 100 +5  1011.6  -1.2  751  296           
12 19.09.17 тихо ()   10 км  слаб. дождь  10/0 средняя 
[As op]
+3.6 +3.6 100 +4  1011.2  -0.5  751  298    +6.7     
15 19.09.17 тихо ()   10 км  слаб. дождь  10/0 средняя 
[As op]
+3.4 +3.4 100 +3  1010.2  -1  750  298           
18 19.09.17 тихо ()   10 км  слаб. дождь  10/0 средняя 
[As op]
+2.8 +2.8 100 +3  1009.6  -0.7  749  298           
21 19.09.17 тихо ()   20000 м  {дождь}  10/0 средняя 
[As trans]
+2.2 +2.2 100 +2  1009.4  -0.2  749  299           
00 20.09.17 270 (З) 20000 м  {дождь}  10/0 средняя 
[As trans]
+1.6 +1.3 98 +2  1009.9  0.4  749  300  +1.1      влажная 
03 20.09.17 тихо ()   20000 м    10/0 средняя 
[As trans]
+3.5 +2.5 93 +4  1010.1  0.4  750  298           
06 20.09.17 тихо ()   20000 м  {ливн. осадки}  8/8 600 м кучево-дожд. 
[Cb calv]
+4.4 +2.9 90 +4  1010.1  750  297           
09 20.09.17 тихо ()   20000 м    9/9 600 м кучево-дожд. 
[Cb calv]
+3.9 +2.9 93 +4  1010.1  750  297           
12 20.09.17 тихо ()   20000 м    9/9 600 м кучево-дожд. 
[Cb calv]
+2.5 +2.2 98 +3  1010.4  0.2  750  299    +4.9  0.3     
15 20.09.17 тихо ()   20000 м  {ливн. осадки}  9/9 600 м кучево-дожд. 
[Cb cap]
+1.2 +1.2 100 +1  1010.4  -0.1  750  301           
18 20.09.17 тихо ()   20000 м  {ливн. осадки}  9/9 600 м кучево-дожд. 
[Cb cap]
+1.1 +1.1 100 +1  1010.3  -0.1  750  301           
21 20.09.17 тихо ()   20000 м    10/6 600 м средняя 
[Sc|As trans]
+1 +1 100 +1  1010.2  -0.1  750  301           
00 21.09.17 тихо ()   20000 м    10/6 600 м средняя 
[Sc|As trans]
+1.5 +1.5 100 +2  1010.1  750  300  +0.6    0.9    влажная 
03 21.09.17 тихо ()   20000 м    10/8 600 м средняя 
[Sc|As trans]
+2.6 +1.3 91 +3  1010.1  750  299           
06 21.09.17 180 (Ю) 20000 м    10/8 600 м средняя 
[Sc|As trans]
+3 +0.9 86 +4  1010.7  0.6  750  299           
09 21.09.17 тихо ()   20000 м    10/6 600 м средняя 
[Sc|As trans]
+2.9 +1.1 88 +3  1010.8  0.1  750  299           
12 21.09.17 тихо ()   20000 м    8/8 600 м 
[Sc]
+1 +1 100 +1  1011.8  0.8  751  301    +3.8       
Время (UTC), дата Ветер
(°,м/с) 
Видим.   Явления Облачность Т
(°С)
Тd
(°С)
f(%) Тe
(°С)
Pmin
(гПа)
dP
(гПа)
Po
(мм)
O2
(г/м3)
Тmin Tmax R s Состояние
почвы

Для получения пояснительной информации подведите курсор к названию столбца.

ПОГОДА Тас-Тумус - архив

Всё, что Вы хотите узнать о погоде Тас-Тумус - удобно и подробно!

Выберите нужную дату (начиная с 1 января 2015* года) и нажмите кнопку "Найти".
Будут отображены архивные сводки погоды по пункту Тас-Тумус, начиная с указанной даты.


Отображать данные в формате CSV (для использования в таблицах Excel)


Внимание! Наш архив погоды предназначен исключительно для личного некоммерческого использования в познавательных целях. Если Вам необходимы официальные справки о состоянии погоды (для производственных, юридических, коммерческих и т.п. целей), обращайтесь в органы Росгидромета.

*Примечание: данная дата относится к архиву по метеостанциям СССР (Россия, СНГ, Балтия).
Архив по метеостанциям Зарубежной Европы и Азии (кроме Китая) хранится 10 дней, по другим регионам земного шара (Китай, Африка, Америка, Австралия, Океания) - 1 день.

Тас-Тумус - район местоположения метеостанции


Название, широта, долгота, высота метеостанции:
Тас-Тумус 64.2°ш. 126.6°д. 76 м над ур. моря [Российская Федерация]

Дополнительная информация

В oтличие oт бoльшинства пoгoдных сайтoв мы публикуем пoдрoбную метеoинфoрмацию в детальнoм прoфессиoнальнoм фoрмате.

Характеристики температуры и влажнoсти вoздуха измеряются на высoте 2 м в тени вдали oт зданий и деревьев.
Скoрoсть ветра измеряется на высoте 10 м (на урoвне рoста челoвека скoрoсть ветра ниже в 1.5-2 раза). Если метеoстанция нахoдится в гoрoде или в лесу, тo скoрoсть ветра занижена на 2-4 м/с пo сравнению с oткрытым местoм. Скoрoсть ветра над акватoриями крупных рек и oзёр, а также на вершинах хoлмoв на 2-5 м/с выше, чем в oбычных услoвиях.
Атмoсфернoе давление в разных тoчках местнoсти мoжет значительнo oтличаться oт давления на метеoстанции, в зависимoсти oт услoвий рельефа (при пoдъёме на 10 м давление пoнижается примернo на 1 мм рт.ст.).